Time,TemperatureF,DewpointF,PressureIn,WindDirection,WindDirectionDegrees,WindSpeedMPH,WindSpeedGustMPH,Humidity,HourlyPrecipIn,Conditions,Clouds,dailyrainin,SolarRadiationWatts/m^2,SoftwareType,DateUTC
2013-05-24 00:00:00,44.5,38.7,30.32,North,360,0.0,1.0,80,0.00,,---,0.00,0.00,VWS V14.00,2013-05-24 05:00:00,
2013-05-24 00:04:00,46.2,34.3,30.34,NNE,26,0.0,0.0,63,0.00,,---,0.00,0.00,VWS V14.00,2013-05-24 05:04:00,
2013-05-24 00:09:00,45.8,33.9,30.34,NNE,26,0.0,0.0,63,0.00,,---,0.00,0.00,VWS V14.00,2013-05-24 05:09:00,
2013-05-24 00:14:00,45.4,34.7,30.34,NNE,26,0.0,0.0,66,0.00,,---,0.00,0.00,VWS V14.00,2013-05-24 05:14:00,
2013-05-24 00:19:00,45.0,34.3,30.34,NNE,26,0.0,0.0,66,0.00,,---,0.00,0.00,VWS V14.00,2013-05-24 05:19:00,
2013-05-24 00:24:00,44.6,35.1,30.34,NNE,26,0.0,0.0,69,0.00,,---,0.00,0.00,VWS V14.00,2013-05-24 05:24:00,
2013-05-24 00:29:00,44.2,34.3,30.34,NNE,26,0.0,0.0,68,0.00,,---,0.00,0.00,VWS V14.00,2013-05-24 05:29:00,
2013-05-24 00:30:00,45.7,36.8,30.33,North,5,0.0,2.0,71,0.00,,---,0.00,0.00,VWS V14.00,2013-05-24 05:30:00,
2013-05-24 00:34:00,43.8,33.9,30.34,NNE,26,0.0,0.0,68,0.00,,---,0.00,0.00,VWS V14.00,2013-05-24 05:34:00,
2013-05-24 00:39:00,43.5,34.4,30.34,NNE,26,0.0,0.0,70,0.00,,---,0.00,0.00,VWS V14.00,2013-05-24 05:39:00,
2013-05-24 00:44:00,43.1,35.0,30.34,NNE,26,0.0,0.0,73,0.00,,---,0.00,0.00,VWS V14.00,2013-05-24 05:44:00,
2013-05-24 00:49:00,42.8,35.8,30.34,NNE,26,0.0,0.0,76,0.00,,---,0.00,0.00,VWS V14.00,2013-05-24 05:49:00,
2013-05-24 00:54:00,42.5,34.8,30.33,NNE,26,0.0,0.0,74,0.00,,---,0.00,0.00,VWS V14.00,2013-05-24 05:54:00,
2013-05-24 01:00:00,42.2,35.2,30.34,NNE,26,0.0,0.0,76,0.00,,---,0.00,0.00,VWS V14.00,2013-05-24 06:00:00,
2013-05-24 01:05:00,41.8,34.5,30.34,NNE,26,0.0,0.0,75,0.00,,---,0.00,0.00,VWS V14.00,2013-05-24 06:05:00,
2013-05-24 01:10:00,41.5,34.8,30.34,NNE,26,0.0,0.0,77,0.00,,---,0.00,0.00,VWS V14.00,2013-05-24 06:10:00,
2013-05-24 01:15:00,41.3,35.3,30.34,NNE,26,0.0,1.0,79,0.00,,---,0.00,0.00,VWS V14.00,2013-05-24 06:15:00,
2013-05-24 01:20:00,41.1,35.1,30.34,NNE,26,0.0,1.0,79,0.00,,---,0.00,0.00,VWS V14.00,2013-05-24 06:20:00,
2013-05-24 01:25:00,40.9,34.9,30.34,NNE,26,0.0,1.0,79,0.00,,---,0.00,0.00,VWS V14.00,2013-05-24 06:25:00,
2013-05-24 01:30:00,40.6,34.6,30.34,NNE,26,0.0,1.0,79,0.00,,---,0.00,0.00,VWS V14.00,2013-05-24 06:30:00,
2013-05-24 01:35:00,40.5,34.5,30.34,NNE,26,1.0,1.0,79,0.00,,---,0.00,0.00,VWS V14.00,2013-05-24 06:35:00,
2013-05-24 01:40:00,40.4,34.4,30.34,NNE,18,0.0,2.0,79,0.00,,---,0.00,0.00,VWS V14.00,2013-05-24 06:40:00,
2013-05-24 01:45:00,40.5,34.8,30.34,NNE,20,0.0,2.0,80,0.00,,---,0.00,0.00,VWS V14.00,2013-05-24 06:45:00,
2013-05-24 01:51:00,40.6,34.3,30.34,NNE,20,0.0,2.0,78,0.00,,---,0.00,0.00,VWS V14.00,2013-05-24 06:51:00,
2013-05-24 01:56:00,40.7,33.7,30.34,NNE,20,0.0,2.0,76,0.00,,---,0.00,0.00,VWS V14.00,2013-05-24 06:56:00,
2013-05-24 02:00:00,42.3,35.0,30.34,NNE,26,0.0,0.0,75,0.00,,---,0.00,0.00,VWS V14.00,2013-05-24 07:00:00,
2013-05-24 02:01:00,40.8,33.5,30.34,NNE,26,0.0,0.0,75,0.00,,---,0.00,0.00,VWS V14.00,2013-05-24 07:01:00,
2013-05-24 02:06:00,41.0,32.3,30.34,NNE,26,0.0,1.0,71,0.00,,---,0.00,0.00,VWS V14.00,2013-05-24 07:06:00,
2013-05-24 02:11:00,41.3,33.3,30.34,NW,317,0.0,2.0,73,0.00,,---,0.00,0.00,VWS V14.00,2013-05-24 07:11:00,
2013-05-24 02:16:00,41.4,33.4,30.34,NW,317,0.0,2.0,73,0.00,,---,0.00,0.00,VWS V14.00,2013-05-24 07:16:00,
2013-05-24 02:21:00,41.3,33.3,30.34,NW,317,0.0,2.0,73,0.00,,---,0.00,0.00,VWS V14.00,2013-05-24 07:21:00,
2013-05-24 02:26:00,41.1,33.1,30.35,NW,317,0.0,2.0,73,0.00,,---,0.00,0.00,VWS V14.00,2013-05-24 07:26:00,
2013-05-24 02:30:00,40.7,34.7,30.33,NNE,26,0.0,1.0,79,0.00,,---,0.00,0.00,VWS V14.00,2013-05-24 07:30:00,
2013-05-24 02:31:00,40.9,32.6,30.35,NW,317,0.0,0.0,72,0.00,,---,0.00,0.00,VWS V14.00,2013-05-24 07:31:00,
2013-05-24 02:36:00,40.6,32.3,30.35,NW,317,0.0,0.0,72,0.00,,---,0.00,0.00,VWS V14.00,2013-05-24 07:36:00,
2013-05-24 02:41:00,40.3,33.0,30.35,NW,317,0.0,0.0,75,0.00,,---,0.00,0.00,VWS V14.00,2013-05-24 07:41:00,
2013-05-24 02:47:00,40.0,32.1,30.35,NW,317,0.0,0.0,73,0.00,,---,0.00,0.00,VWS V14.00,2013-05-24 07:47:00,
2013-05-24 02:52:00,39.7,32.1,30.35,NW,317,0.0,0.0,74,0.00,,---,0.00,0.00,VWS V14.00,2013-05-24 07:52:00,
2013-05-24 02:57:00,39.4,32.2,30.35,NW,317,0.0,0.0,75,0.00,,---,0.00,0.00,VWS V14.00,2013-05-24 07:57:00,
2013-05-24 03:00:00,40.7,33.7,30.34,NNE,20,0.0,2.0,76,0.00,,---,0.00,0.00,VWS V14.00,2013-05-24 08:00:00,
2013-05-24 03:02:00,39.2,32.3,30.35,NW,317,0.0,0.0,76,0.00,,---,0.00,0.00,VWS V14.00,2013-05-24 08:02:00,
2013-05-24 03:07:00,38.9,33.0,30.35,NW,317,0.0,0.0,79,0.00,,---,0.00,0.00,VWS V14.00,2013-05-24 08:07:00,
2013-05-24 03:12:00,38.6,32.7,30.35,NW,317,0.0,0.0,79,0.00,,---,0.00,0.00,VWS V14.00,2013-05-24 08:12:00,
2013-05-24 03:17:00,38.4,32.8,30.35,NW,317,0.0,0.0,80,0.00,,---,0.00,0.00,VWS V14.00,2013-05-24 08:17:00,
2013-05-24 03:22:00,38.1,32.8,30.35,NW,317,0.0,0.0,81,0.00,,---,0.00,0.00,VWS V14.00,2013-05-24 08:22:00,
2013-05-24 03:27:00,37.9,32.6,30.35,NW,317,0.0,0.0,81,0.00,,---,0.00,0.00,VWS V14.00,2013-05-24 08:27:00,
2013-05-24 03:30:00,41.1,33.1,30.35,NW,317,0.0,2.0,73,0.00,,---,0.00,0.00,VWS V14.00,2013-05-24 08:30:00,
2013-05-24 03:32:00,37.6,32.6,30.35,NW,317,0.0,0.0,82,0.00,,---,0.00,0.00,VWS V14.00,2013-05-24 08:32:00,
2013-05-24 03:38:00,37.4,32.7,30.36,NW,317,0.0,0.0,83,0.00,,---,0.00,0.00,VWS V14.00,2013-05-24 08:38:00,
2013-05-24 03:43:00,37.1,32.7,30.35,NW,317,0.0,0.0,84,0.00,,---,0.00,0.00,VWS V14.00,2013-05-24 08:43:00,
2013-05-24 03:48:00,36.9,32.2,30.35,NW,317,0.0,0.0,83,0.00,,---,0.00,0.00,VWS V14.00,2013-05-24 08:48:00,
2013-05-24 03:53:00,36.6,32.2,30.35,NW,317,0.0,0.0,84,0.00,,---,0.00,0.00,VWS V14.00,2013-05-24 08:53:00,
2013-05-24 03:58:00,36.5,32.4,30.35,NW,317,0.0,0.0,85,0.00,,---,0.00,0.00,VWS V14.00,2013-05-24 08:58:00,
2013-05-24 04:00:00,39.4,32.5,30.35,NW,317,0.0,0.0,76,0.00,,---,0.00,0.00,VWS V14.00,2013-05-24 09:00:00,
2013-05-24 04:03:00,36.2,32.1,30.35,NW,317,0.0,0.0,85,0.00,,---,0.00,0.00,VWS V14.00,2013-05-24 09:03:00,
2013-05-24 04:08:00,36.1,32.3,30.35,NW,317,0.0,0.0,86,0.00,,---,0.00,0.00,VWS V14.00,2013-05-24 09:08:00,
2013-05-24 04:13:00,36.0,32.2,30.35,NW,317,0.0,0.0,86,0.00,,---,0.00,0.00,VWS V14.00,2013-05-24 09:13:00,
2013-05-24 04:18:00,35.8,32.3,30.35,NW,317,0.0,0.0,87,0.00,,---,0.00,0.00,VWS V14.00,2013-05-24 09:18:00,
2013-05-24 04:23:00,35.7,32.2,30.36,NW,317,0.0,0.0,87,0.00,,---,0.00,0.00,VWS V14.00,2013-05-24 09:23:00,
2013-05-24 04:28:00,35.6,32.1,30.36,NW,317,0.0,0.0,87,0.00,,---,0.00,0.00,VWS V14.00,2013-05-24 09:28:00,
2013-05-24 04:30:00,37.9,32.6,30.35,NW,317,0.0,0.0,81,0.00,,---,0.00,0.00,VWS V14.00,2013-05-24 09:30:00,
2013-05-24 04:34:00,35.5,32.3,30.36,NW,317,0.0,0.0,88,0.00,,---,0.00,0.00,VWS V14.00,2013-05-24 09:34:00,
2013-05-24 04:39:00,35.3,32.1,30.36,NW,317,0.0,0.0,88,0.00,,---,0.00,0.00,VWS V14.00,2013-05-24 09:39:00,
2013-05-24 04:44:00,35.3,32.4,30.36,NW,317,0.0,0.0,89,0.00,,---,0.00,0.00,VWS V14.00,2013-05-24 09:44:00,
2013-05-24 04:49:00,35.2,32.3,30.35,NW,317,0.0,0.0,89,0.00,,---,0.00,0.00,VWS V14.00,2013-05-24 09:49:00,
2013-05-24 04:54:00,35.1,32.2,30.36,NW,317,0.0,0.0,89,0.00,,---,0.00,0.00,VWS V14.00,2013-05-24 09:54:00,
2013-05-24 04:59:00,35.1,32.5,30.36,NW,317,0.0,0.0,90,0.00,,---,0.00,0.00,VWS V14.00,2013-05-24 09:59:00,
2013-05-24 05:00:00,36.5,32.4,30.35,NW,317,0.0,0.0,85,0.00,,---,0.00,0.00,VWS V14.00,2013-05-24 10:00:00,
2013-05-24 05:04:00,35.0,32.4,30.36,NW,317,0.0,0.0,90,0.00,,---,0.00,0.00,VWS V14.00,2013-05-24 10:04:00,
2013-05-24 05:09:00,35.0,32.4,30.36,NW,317,0.0,0.0,90,0.00,,---,0.00,0.00,VWS V14.00,2013-05-24 10:09:00,
2013-05-24 05:14:00,34.8,32.2,30.36,NW,317,0.0,0.0,90,0.00,,---,0.00,0.00,VWS V14.00,2013-05-24 10:14:00,
2013-05-24 05:19:00,34.7,32.1,30.37,NW,317,0.0,0.0,90,0.00,,---,0.00,0.00,VWS V14.00,2013-05-24 10:19:00,
2013-05-24 05:25:00,34.7,32.3,30.37,NW,317,0.0,0.0,91,0.00,,---,0.00,0.00,VWS V14.00,2013-05-24 10:25:00,
2013-05-24 05:30:00,34.6,32.2,30.37,NW,317,0.0,0.0,91,0.00,,---,0.00,0.00,VWS V14.00,2013-05-24 10:30:00,
2013-05-24 05:35:00,34.5,32.2,30.37,NW,317,0.0,0.0,91,0.00,,---,0.00,0.00,VWS V14.00,2013-05-24 10:35:00,
2013-05-24 05:40:00,34.4,32.0,30.37,NW,317,0.0,0.0,91,0.00,,---,0.00,5.00,VWS V14.00,2013-05-24 10:40:00,
2013-05-24 05:45:00,34.4,32.3,30.37,NW,317,0.0,0.0,92,0.00,,---,0.00,7.00,VWS V14.00,2013-05-24 10:45:00,
2013-05-24 05:50:00,34.5,32.4,30.37,NW,317,0.0,0.0,92,0.00,,---,0.00,9.00,VWS V14.00,2013-05-24 10:50:00,
2013-05-24 05:55:00,34.4,32.3,30.37,NW,317,0.0,0.0,92,0.00,,---,0.00,11.00,VWS V14.00,2013-05-24 10:55:00,
2013-05-24 06:00:00,34.4,32.3,30.37,NW,317,0.0,0.0,92,0.00,,---,0.00,14.00,VWS V14.00,2013-05-24 11:00:00,
2013-05-24 06:05:00,34.5,32.4,30.37,NW,317,0.0,0.0,92,0.00,,---,0.00,16.00,VWS V14.00,2013-05-24 11:05:00,
2013-05-24 06:10:00,34.6,32.8,30.38,NW,317,0.0,0.0,93,0.00,,---,0.00,19.00,VWS V14.00,2013-05-24 11:10:00,
2013-05-24 06:16:00,34.6,32.5,30.38,NW,317,0.0,0.0,92,0.00,,---,0.00,21.00,VWS V14.00,2013-05-24 11:16:00,
2013-05-24 06:21:00,34.6,32.5,30.38,NW,317,0.0,0.0,92,0.00,,---,0.00,23.00,VWS V14.00,2013-05-24 11:21:00,
2013-05-24 06:26:00,34.7,32.9,30.38,NW,317,0.0,0.0,93,0.00,,---,0.00,25.00,VWS V14.00,2013-05-24 11:26:00,
2013-05-24 06:30:00,34.6,32.2,30.37,NW,317,0.0,0.0,91,0.00,,---,0.00,0.00,VWS V14.00,2013-05-24 11:30:00,
2013-05-24 06:31:00,34.7,32.9,30.38,NW,317,0.0,0.0,93,0.00,,---,0.00,26.00,VWS V14.00,2013-05-24 11:31:00,
2013-05-24 06:36:00,34.9,33.1,30.38,NW,317,0.0,0.0,93,0.00,,---,0.00,30.00,VWS V14.00,2013-05-24 11:36:00,
2013-05-24 06:41:00,35.2,33.7,30.38,NW,317,0.0,0.0,94,0.00,,---,0.00,33.00,VWS V14.00,2013-05-24 11:41:00,
2013-05-24 06:46:00,35.6,34.0,30.38,NW,317,0.0,0.0,94,0.00,,---,0.00,37.00,VWS V14.00,2013-05-24 11:46:00,
2013-05-24 06:51:00,36.0,34.4,30.39,NW,317,0.0,0.0,94,0.00,,---,0.00,39.00,VWS V14.00,2013-05-24 11:51:00,
2013-05-24 06:56:00,36.4,34.8,30.38,NW,317,0.0,0.0,94,0.00,,---,0.00,40.00,VWS V14.00,2013-05-24 11:56:00,
2013-05-24 07:00:00,34.5,32.4,30.37,NW,317,0.0,0.0,92,0.00,,---,0.00,12.00,VWS V14.00,2013-05-24 12:00:00,
2013-05-24 07:01:00,37.0,35.4,30.39,NW,317,0.0,0.0,94,0.00,,---,0.00,42.00,VWS V14.00,2013-05-24 12:01:00,
2013-05-24 07:07:00,37.7,35.9,30.39,NW,317,0.0,1.0,93,0.00,,---,0.00,44.00,VWS V14.00,2013-05-24 12:07:00,
2013-05-24 07:12:00,38.4,36.0,30.39,NW,325,0.0,1.0,91,0.00,,---,0.00,46.00,VWS V14.00,2013-05-24 12:12:00,
2013-05-24 07:17:00,39.3,36.3,30.38,NW,325,0.0,1.0,89,0.00,,---,0.00,51.00,VWS V14.00,2013-05-24 12:17:00,
2013-05-24 07:22:00,40.2,36.3,30.38,SE,131,0.0,2.0,86,0.00,,---,0.00,56.00,VWS V14.00,2013-05-24 12:22:00,
2013-05-24 07:27:00,41.1,36.0,30.39,WSW,250,0.0,2.0,82,0.00,,---,0.00,58.00,VWS V14.00,2013-05-24 12:27:00,
2013-05-24 07:30:00,34.6,32.8,30.38,NW,317,0.0,0.0,93,0.00,,---,0.00,25.00,VWS V14.00,2013-05-24 12:30:00,
2013-05-24 07:32:00,42.0,36.6,30.38,WSW,246,0.0,1.0,81,0.00,,---,0.00,69.00,VWS V14.00,2013-05-24 12:32:00,
2013-05-24 07:37:00,42.7,36.7,30.38,South,184,0.0,2.0,79,0.00,,---,0.00,65.00,VWS V14.00,2013-05-24 12:37:00,
2013-05-24 07:42:00,43.4,37.0,30.38,NNE,29,1.0,5.0,78,0.00,,---,0.00,54.00,VWS V14.00,2013-05-24 12:42:00,
2013-05-24 07:47:00,44.0,37.3,30.39,South,184,0.0,5.0,77,0.00,,---,0.00,54.00,VWS V14.00,2013-05-24 12:47:00,
2013-05-24 07:52:00,44.7,37.3,30.38,South,186,0.0,5.0,75,0.00,,---,0.00,56.00,VWS V14.00,2013-05-24 12:52:00,
2013-05-24 07:58:00,45.1,37.7,30.38,WNW,285,0.0,0.0,75,0.00,,---,0.00,56.00,VWS V14.00,2013-05-24 12:58:00,
2013-05-24 08:00:00,36.5,34.9,30.38,NW,317,0.0,0.0,94,0.00,,---,0.00,40.00,VWS V14.00,2013-05-24 13:00:00,
2013-05-24 08:03:00,45.5,38.0,30.39,WNW,286,0.0,2.0,75,0.00,,---,0.00,56.00,VWS V14.00,2013-05-24 13:03:00,
2013-05-24 08:08:00,46.0,38.5,30.39,WNW,287,0.0,2.0,75,0.00,,---,0.00,67.00,VWS V14.00,2013-05-24 13:08:00,
2013-05-24 08:13:00,46.3,38.5,30.39,WNW,285,1.0,2.0,74,0.00,,---,0.00,58.00,VWS V14.00,2013-05-24 13:13:00,
2013-05-24 08:18:00,46.7,38.5,30.39,SSW,205,0.0,4.0,73,0.00,,---,0.00,63.00,VWS V14.00,2013-05-24 13:18:00,
2013-05-24 08:23:00,47.2,38.3,30.39,SSW,207,0.0,4.0,71,0.00,,---,0.00,63.00,VWS V14.00,2013-05-24 13:23:00,
2013-05-24 08:28:00,47.7,38.4,30.38,SSW,212,0.0,0.0,70,0.00,,---,0.00,76.00,VWS V14.00,2013-05-24 13:28:00,
2013-05-24 08:30:00,41.2,36.1,30.38,WSW,250,0.0,2.0,82,0.00,,---,0.00,58.00,VWS V14.00,2013-05-24 13:30:00,
2013-05-24 08:33:00,48.1,38.4,30.38,SSW,203,0.0,1.0,69,0.00,,---,0.00,70.00,VWS V14.00,2013-05-24 13:33:00,
2013-05-24 08:38:00,48.6,39.3,30.38,NNE,32,0.0,2.0,70,0.00,,---,0.00,67.00,VWS V14.00,2013-05-24 13:38:00,
2013-05-24 08:43:00,49.3,38.8,30.38,SSW,205,0.0,2.0,67,0.00,,---,0.00,77.00,VWS V14.00,2013-05-24 13:43:00,
2013-05-24 08:48:00,50.0,39.9,30.38,NNW,330,0.0,2.0,68,0.00,,---,0.00,183.00,VWS V14.00,2013-05-24 13:48:00,
2013-05-24 08:54:00,50.5,38.4,30.37,WSW,250,0.0,2.0,63,0.00,,---,0.00,172.00,VWS V14.00,2013-05-24 13:54:00,
2013-05-24 08:59:00,51.2,37.8,30.37,North,5,0.0,1.0,60,0.00,,---,0.00,575.00,VWS V14.00,2013-05-24 13:59:00,
2013-05-24 09:00:00,45.1,37.7,30.38,WNW,285,0.0,5.0,75,0.00,,---,0.00,58.00,VWS V14.00,2013-05-24 14:00:00,
2013-05-24 09:04:00,51.9,38.9,30.37,South,171,1.0,2.0,61,0.00,,---,0.00,615.00,VWS V14.00,2013-05-24 14:04:00,
2013-05-24 09:09:00,52.7,39.2,30.37,South,180,1.0,4.0,60,0.00,,---,0.00,638.00,VWS V14.00,2013-05-24 14:09:00,
2013-05-24 09:14:00,53.5,39.1,30.37,NNE,25,1.0,4.0,58,0.00,,---,0.00,657.00,VWS V14.00,2013-05-24 14:14:00,
2013-05-24 09:19:00,54.1,40.1,30.37,ENE,59,2.0,4.0,59,0.00,,---,0.00,635.00,VWS V14.00,2013-05-24 14:19:00,
2013-05-24 09:24:00,54.8,41.2,30.37,West,275,0.0,6.0,60,0.00,,---,0.00,677.00,VWS V14.00,2013-05-24 14:24:00,
2013-05-24 09:29:00,55.4,39.5,30.37,SSW,196,0.0,5.0,55,0.00,,---,0.00,664.00,VWS V14.00,2013-05-24 14:29:00,
2013-05-24 09:30:00,47.6,38.3,30.39,SSW,212,0.0,4.0,70,0.00,,---,0.00,62.00,VWS V14.00,2013-05-24 14:30:00,
2013-05-24 09:34:00,55.6,40.6,30.37,NNE,26,1.0,5.0,57,0.00,,---,0.00,647.00,VWS V14.00,2013-05-24 14:34:00,
2013-05-24 09:39:00,55.8,40.4,30.37,ESE,103,1.0,5.0,56,0.00,,---,0.00,745.00,VWS V14.00,2013-05-24 14:39:00,
2013-05-24 09:44:00,56.1,42.0,30.36,South,183,0.0,5.0,59,0.00,,---,0.00,749.00,VWS V14.00,2013-05-24 14:44:00,
2013-05-24 09:49:00,56.7,41.7,30.36,SW,232,0.0,5.0,57,0.00,,---,0.00,737.00,VWS V14.00,2013-05-24 14:49:00,
2013-05-24 09:54:00,57.3,40.3,30.36,NNE,28,2.0,5.0,53,0.00,,---,0.00,775.00,VWS V14.00,2013-05-24 14:54:00,
2013-05-24 10:00:00,57.6,40.6,30.36,NW,304,2.0,4.0,53,0.00,,---,0.00,717.00,VWS V14.00,2013-05-24 15:00:00,
2013-05-24 10:05:00,57.8,40.3,30.36,SSE,167,0.0,5.0,52,0.00,,---,0.00,705.00,VWS V14.00,2013-05-24 15:05:00,
2013-05-24 10:10:00,58.2,41.7,30.36,South,178,0.0,5.0,54,0.00,,---,0.00,751.00,VWS V14.00,2013-05-24 15:10:00,
2013-05-24 10:15:00,58.4,40.9,30.35,NE,53,2.0,6.0,52,0.00,,---,0.00,766.00,VWS V14.00,2013-05-24 15:15:00,
2013-05-24 10:20:00,58.4,40.9,30.36,South,190,0.0,7.0,52,0.00,,---,0.00,809.00,VWS V14.00,2013-05-24 15:20:00,
2013-05-24 10:25:00,58.7,41.6,30.36,SW,233,1.0,7.0,53,0.00,,---,0.00,788.00,VWS V14.00,2013-05-24 15:25:00,
2013-05-24 10:30:00,59.0,41.4,30.35,SE,138,0.0,3.0,52,0.00,,---,0.00,793.00,VWS V14.00,2013-05-24 15:30:00,
2013-05-24 10:35:00,59.7,42.1,30.36,ENE,62,0.0,3.0,52,0.00,,---,0.00,789.00,VWS V14.00,2013-05-24 15:35:00,
2013-05-24 10:40:00,60.2,43.0,30.35,NE,50,2.0,3.0,53,0.00,,---,0.00,791.00,VWS V14.00,2013-05-24 15:40:00,
2013-05-24 10:45:00,60.6,39.7,30.35,SSW,200,0.0,4.0,46,0.00,,---,0.00,814.00,VWS V14.00,2013-05-24 15:45:00,
2013-05-24 10:51:00,60.6,40.8,30.35,ENE,67,0.0,4.0,48,0.00,,---,0.00,775.00,VWS V14.00,2013-05-24 15:51:00,
2013-05-24 10:56:00,60.9,42.7,30.35,SSE,168,0.0,4.0,51,0.00,,---,0.00,817.00,VWS V14.00,2013-05-24 15:56:00,
2013-05-24 11:00:00,57.5,41.0,30.36,SW,232,1.0,5.0,54,0.00,,---,0.00,744.00,VWS V14.00,2013-05-24 16:00:00,
2013-05-24 11:01:00,61.1,41.3,30.35,NNE,28,0.0,3.0,48,0.00,,---,0.00,844.00,VWS V14.00,2013-05-24 16:01:00,
2013-05-24 11:06:00,60.9,40.0,30.35,SSE,159,1.0,5.0,46,0.00,,---,0.00,914.00,VWS V14.00,2013-05-24 16:06:00,
2013-05-24 11:11:00,61.3,41.5,30.35,East,92,0.0,5.0,48,0.00,,---,0.00,784.00,VWS V14.00,2013-05-24 16:11:00,
2013-05-24 11:16:00,61.6,40.1,30.34,South,186,2.0,5.0,45,0.00,,---,0.00,954.00,VWS V14.00,2013-05-24 16:16:00,
2013-05-24 11:21:00,61.9,40.3,30.34,SSW,207,0.0,7.0,45,0.00,,---,0.00,979.00,VWS V14.00,2013-05-24 16:21:00,
2013-05-24 11:26:00,62.4,41.9,30.34,East,95,3.0,7.0,47,0.00,,---,0.00,991.00,VWS V14.00,2013-05-24 16:26:00,
2013-05-24 11:30:00,59.0,41.9,30.36,South,182,0.0,7.0,53,0.00,,---,0.00,803.00,VWS V14.00,2013-05-24 16:30:00,
2013-05-24 11:31:00,62.9,44.0,30.34,SSW,194,1.0,4.0,50,0.00,,---,0.00,891.00,VWS V14.00,2013-05-24 16:31:00,
2013-05-24 11:36:00,63.0,43.0,30.34,ENE,61,0.0,5.0,48,0.00,,---,0.00,1085.00,VWS V14.00,2013-05-24 16:36:00,
2013-05-24 11:42:00,63.2,41.5,30.34,NE,56,0.0,5.0,45,0.00,,---,0.00,856.00,VWS V14.00,2013-05-24 16:42:00,
2013-05-24 11:47:00,63.4,42.8,30.34,South,188,0.0,5.0,47,0.00,,---,0.00,909.00,VWS V14.00,2013-05-24 16:47:00,
2013-05-24 11:52:00,63.3,43.3,30.34,SSW,204,1.0,5.0,48,0.00,,---,0.00,979.00,VWS V14.00,2013-05-24 16:52:00,
2013-05-24 11:57:00,63.6,45.2,30.34,SW,216,0.0,5.0,51,0.00,,---,0.00,1030.00,VWS V14.00,2013-05-24 16:57:00,
2013-05-24 12:00:00,61.0,41.2,30.35,North,360,0.0,4.0,48,0.00,,---,0.00,809.00,VWS V14.00,2013-05-24 17:00:00,
2013-05-24 12:02:00,63.9,43.8,30.34,ENE,74,0.0,3.0,48,0.00,,---,0.00,1085.00,VWS V14.00,2013-05-24 17:02:00,
2013-05-24 12:07:00,64.1,41.8,30.34,NNE,24,1.0,4.0,44,0.00,,---,0.00,800.00,VWS V14.00,2013-05-24 17:07:00,
2013-05-24 12:12:00,64.0,44.5,30.33,NNE,15,0.0,4.0,49,0.00,,---,0.00,798.00,VWS V14.00,2013-05-24 17:12:00,
2013-05-24 12:17:00,64.1,42.9,30.33,SSE,158,2.0,5.0,46,0.00,,---,0.00,1058.00,VWS V14.00,2013-05-24 17:17:00,
2013-05-24 12:22:00,64.4,42.0,30.33,South,177,0.0,5.0,44,0.00,,---,0.00,1056.00,VWS V14.00,2013-05-24 17:22:00,
2013-05-24 12:27:00,64.7,42.9,30.32,NE,38,0.0,1.0,45,0.00,,---,0.00,1079.00,VWS V14.00,2013-05-24 17:27:00,
2013-05-24 12:30:00,62.5,39.7,30.34,South,176,0.0,7.0,43,0.00,,---,0.00,1046.00,VWS V14.00,2013-05-24 17:30:00,
2013-05-24 12:33:00,64.9,43.7,30.33,ESE,120,0.0,3.0,46,0.00,,---,0.00,1134.00,VWS V14.00,2013-05-24 17:33:00,
2013-05-24 12:38:00,65.0,42.6,30.32,SE,142,0.0,4.0,44,0.00,,---,0.00,1106.00,VWS V14.00,2013-05-24 17:38:00,
2013-05-24 12:43:00,65.1,43.8,30.31,SSW,209,0.0,4.0,46,0.00,,---,0.00,1099.00,VWS V14.00,2013-05-24 17:43:00,
2013-05-24 12:48:00,65.4,43.5,30.31,ESE,116,3.0,5.0,45,0.00,,---,0.00,1136.00,VWS V14.00,2013-05-24 17:48:00,
2013-05-24 12:53:00,65.7,43.8,30.31,SSE,150,1.0,5.0,45,0.00,,---,0.00,629.00,VWS V14.00,2013-05-24 17:53:00,
2013-05-24 12:58:00,65.8,45.0,30.30,SSW,198,4.0,4.0,47,0.00,,---,0.00,1109.00,VWS V14.00,2013-05-24 17:58:00,
2013-05-24 13:00:00,63.6,44.6,30.34,SW,214,0.0,5.0,50,0.00,,---,0.00,1030.00,VWS V14.00,2013-05-24 18:00:00,
2013-05-24 13:03:00,65.9,42.8,30.30,SSW,199,1.0,4.0,43,0.00,,---,0.00,582.00,VWS V14.00,2013-05-24 18:03:00,
2013-05-24 13:08:00,65.6,44.3,30.30,South,186,0.0,4.0,46,0.00,,---,0.00,262.00,VWS V14.00,2013-05-24 18:08:00,
2013-05-24 13:13:00,65.2,44.5,30.29,North,9,0.0,4.0,47,0.00,,---,0.00,1097.00,VWS V14.00,2013-05-24 18:13:00,
2013-05-24 13:18:00,65.6,43.7,30.29,SSW,208,0.0,7.0,45,0.00,,---,0.00,1111.00,VWS V14.00,2013-05-24 18:18:00,
2013-05-24 13:24:00,65.8,44.5,30.29,South,178,0.0,7.0,46,0.00,,---,0.00,278.00,VWS V14.00,2013-05-24 18:24:00,
2013-05-24 13:29:00,65.5,44.2,30.29,SE,143,0.0,1.0,46,0.00,,---,0.00,441.00,VWS V14.00,2013-05-24 18:29:00,
2013-05-24 13:30:00,64.7,42.9,30.33,NE,38,1.0,5.0,45,0.00,,---,0.00,1076.00,VWS V14.00,2013-05-24 18:30:00,
2013-05-24 13:34:00,65.4,43.5,30.28,SSE,150,1.0,12.0,45,0.00,,---,0.00,949.00,VWS V14.00,2013-05-24 18:34:00,
2013-05-24 13:39:00,65.4,42.9,30.28,WSW,238,0.0,12.0,44,0.00,,---,0.00,193.00,VWS V14.00,2013-05-24 18:39:00,
2013-05-24 13:44:00,64.9,43.1,30.28,NNE,26,3.0,12.0,45,0.00,,---,0.00,241.00,VWS V14.00,2013-05-24 18:44:00,
2013-05-24 13:49:00,64.6,43.9,30.28,North,9,0.0,12.0,47,0.00,,---,0.00,1181.00,VWS V14.00,2013-05-24 18:49:00,
2013-05-24 13:54:00,65.4,45.2,30.28,South,189,0.0,12.0,48,0.00,,---,0.00,568.00,VWS V14.00,2013-05-24 18:54:00,
2013-05-24 13:59:00,66.5,46.8,30.27,NNE,15,2.0,2.0,49,0.00,,---,0.00,1085.00,VWS V14.00,2013-05-24 18:59:00,
2013-05-24 14:00:00,65.8,45.0,30.30,South,189,2.0,5.0,47,0.00,,---,0.00,1143.00,VWS V14.00,2013-05-24 19:00:00,
2013-05-24 14:04:00,67.1,46.2,30.26,West,271,0.0,4.0,47,0.00,,---,0.00,693.00,VWS V14.00,2013-05-24 19:04:00,
2013-05-24 14:09:00,67.5,43.6,30.26,SE,126,1.0,4.0,42,0.00,,---,0.00,1037.00,VWS V14.00,2013-05-24 19:09:00,
2013-05-24 14:14:00,67.8,45.7,30.25,NE,43,3.0,7.0,45,0.00,,---,0.00,1018.00,VWS V14.00,2013-05-24 19:14:00,
2013-05-24 14:20:00,68.1,47.1,30.25,SE,133,2.0,7.0,47,0.00,,---,0.00,1005.00,VWS V14.00,2013-05-24 19:20:00,
2013-05-24 14:25:00,68.4,44.4,30.25,SSW,213,1.0,7.0,42,0.00,,---,0.00,1028.00,VWS V14.00,2013-05-24 19:25:00,
2013-05-24 14:30:00,68.5,45.8,30.25,North,355,0.0,8.0,44,0.00,,---,0.00,1032.00,VWS V14.00,2013-05-24 19:30:00,
2013-05-24 14:35:00,68.6,44.0,30.25,ESE,107,0.0,8.0,41,0.00,,---,0.00,1035.00,VWS V14.00,2013-05-24 19:35:00,
2013-05-24 14:40:00,68.9,45.5,30.25,NW,304,0.0,8.0,43,0.00,,---,0.00,998.00,VWS V14.00,2013-05-24 19:40:00,
2013-05-24 14:45:00,69.3,46.5,30.25,SSE,161,1.0,8.0,44,0.00,,---,0.00,1062.00,VWS V14.00,2013-05-24 19:45:00,
2013-05-24 14:50:00,69.1,43.8,30.24,South,188,0.0,8.0,40,0.00,,---,0.00,302.00,VWS V14.00,2013-05-24 19:50:00,
2013-05-24 14:55:00,68.7,43.4,30.24,SSW,209,0.0,8.0,40,0.00,,---,0.00,417.00,VWS V14.00,2013-05-24 19:55:00,
2013-05-24 15:00:00,68.4,43.2,30.24,SW,229,0.0,4.0,40,0.00,,---,0.00,821.00,VWS V14.00,2013-05-24 20:00:00,
2013-05-24 15:05:00,68.3,43.7,30.24,SSE,148,0.0,9.0,41,0.00,,---,0.00,420.00,VWS V14.00,2013-05-24 20:05:00,
2013-05-24 15:10:00,68.1,43.5,30.24,SSW,198,1.0,9.0,41,0.00,,---,0.00,510.00,VWS V14.00,2013-05-24 20:10:00,
2013-05-24 15:15:00,68.1,44.8,30.24,SSW,206,0.0,9.0,43,0.00,,---,0.00,448.00,VWS V14.00,2013-05-24 20:15:00,
2013-05-24 15:21:00,68.0,44.7,30.24,SE,144,1.0,9.0,43,0.00,,---,0.00,392.00,VWS V14.00,2013-05-24 20:21:00,
2013-05-24 15:26:00,67.6,43.7,30.24,WSW,246,0.0,11.0,42,0.00,,---,0.00,285.00,VWS V14.00,2013-05-24 20:26:00,
2013-05-24 15:30:00,68.4,46.2,30.25,South,169,0.0,7.0,45,0.00,,---,0.00,1018.00,VWS V14.00,2013-05-24 20:30:00,
2013-05-24 15:31:00,67.2,44.0,30.24,NE,54,0.0,4.0,43,0.00,,---,0.00,288.00,VWS V14.00,2013-05-24 20:31:00,
2013-05-24 15:36:00,66.9,43.7,30.24,SSE,149,1.0,5.0,43,0.00,,---,0.00,353.00,VWS V14.00,2013-05-24 20:36:00,
2013-05-24 15:41:00,66.7,45.3,30.24,SSW,205,0.0,7.0,46,0.00,,---,0.00,408.00,VWS V14.00,2013-05-24 20:41:00,
2013-05-24 15:46:00,66.9,45.5,30.24,NE,36,0.0,7.0,46,0.00,,---,0.00,476.00,VWS V14.00,2013-05-24 20:46:00,
2013-05-24 15:51:00,67.3,47.5,30.23,NNE,22,0.0,7.0,49,0.00,,---,0.00,476.00,VWS V14.00,2013-05-24 20:51:00,
2013-05-24 15:56:00,67.7,45.0,30.23,WSW,248,0.0,7.0,44,0.00,,---,0.00,352.00,VWS V14.00,2013-05-24 20:56:00,
2013-05-24 16:00:00,68.5,43.2,30.24,SSE,156,0.0,8.0,40,0.00,,---,0.00,452.00,VWS V14.00,2013-05-24 21:00:00,
2013-05-24 16:01:00,67.8,45.7,30.23,WNW,292,0.0,4.0,45,0.00,,---,0.00,285.00,VWS V14.00,2013-05-24 21:01:00,
2013-05-24 16:06:00,67.9,45.8,30.23,WNW,303,1.0,10.0,45,0.00,,---,0.00,336.00,VWS V14.00,2013-05-24 21:06:00,
2013-05-24 16:12:00,67.9,46.4,30.23,SSE,149,0.0,10.0,46,0.00,,---,0.00,418.00,VWS V14.00,2013-05-24 21:12:00,
2013-05-24 16:17:00,68.0,46.5,30.23,East,88,0.0,10.0,46,0.00,,---,0.00,218.00,VWS V14.00,2013-05-24 21:17:00,
2013-05-24 16:22:00,67.9,45.2,30.23,SE,135,0.0,10.0,44,0.00,,---,0.00,258.00,VWS V14.00,2013-05-24 21:22:00,
2013-05-24 16:27:00,67.6,46.1,30.23,SW,215,1.0,10.0,46,0.00,,---,0.00,230.00,VWS V14.00,2013-05-24 21:27:00,
2013-05-24 16:30:00,67.5,43.6,30.23,NE,46,0.0,11.0,42,0.00,,---,0.00,272.00,VWS V14.00,2013-05-24 21:30:00,
2013-05-24 16:32:00,67.3,45.2,30.23,ENE,61,0.0,5.0,45,0.00,,---,0.00,262.00,VWS V14.00,2013-05-24 21:32:00,
2013-05-24 16:37:00,67.1,46.8,30.23,NW,322,0.0,5.0,48,0.00,,---,0.00,214.00,VWS V14.00,2013-05-24 21:37:00,
2013-05-24 16:42:00,66.8,47.6,30.23,North,350,3.0,5.0,50,0.00,,---,0.00,241.00,VWS V14.00,2013-05-24 21:42:00,
2013-05-24 16:47:00,66.7,47.0,30.23,NW,326,0.0,5.0,49,0.00,,---,0.00,165.00,VWS V14.00,2013-05-24 21:47:00,
2013-05-24 16:52:00,66.5,46.8,30.23,WSW,242,0.0,5.0,49,0.00,,---,0.00,179.00,VWS V14.00,2013-05-24 21:52:00,
2013-05-24 16:57:00,66.5,45.7,30.23,WSW,242,0.0,0.0,47,0.00,,---,0.00,190.00,VWS V14.00,2013-05-24 21:57:00,
2013-05-24 17:00:00,67.7,45.6,30.23,West,271,1.0,7.0,45,0.00,,---,0.00,352.00,VWS V14.00,2013-05-24 22:00:00,
2013-05-24 17:03:00,66.5,48.3,30.23,WSW,243,1.0,2.0,52,0.00,,---,0.00,144.00,VWS V14.00,2013-05-24 22:03:00,
2013-05-24 17:08:00,66.3,45.5,30.24,NNE,19,0.0,2.0,47,0.00,,---,0.00,118.00,VWS V14.00,2013-05-24 22:08:00,
2013-05-24 17:13:00,66.1,47.5,30.25,NNE,19,0.0,2.0,51,0.00,,---,0.00,79.00,VWS V14.00,2013-05-24 22:13:00,
2013-05-24 17:18:00,65.9,46.8,30.26,SSE,159,0.0,3.0,50,0.00,,---,0.00,74.00,VWS V14.00,2013-05-24 22:18:00,
2013-05-24 17:23:00,65.7,47.1,30.27,SSE,159,0.0,3.0,51,0.00,,---,0.00,90.00,VWS V14.00,2013-05-24 22:23:00,
2013-05-24 17:28:00,65.4,46.8,30.27,SSE,161,0.0,2.0,51,0.00,,---,0.00,91.00,VWS V14.00,2013-05-24 22:28:00,
2013-05-24 17:30:00,67.6,46.1,30.23,SW,215,0.0,10.0,46,0.00,,---,0.00,230.00,VWS V14.00,2013-05-24 22:30:00,
2013-05-24 17:33:00,65.1,49.0,30.28,SSE,161,0.0,2.0,56,0.00,,---,0.00,77.00,VWS V14.00,2013-05-24 22:33:00,
2013-05-24 17:38:00,64.7,50.1,30.28,SSE,161,0.0,2.0,59,0.00,,---,0.00,77.00,VWS V14.00,2013-05-24 22:38:00,
2013-05-24 17:43:00,64.1,49.5,30.28,SSE,161,0.0,2.0,59,0.00,,---,0.00,83.00,VWS V14.00,2013-05-24 22:43:00,
2013-05-24 17:48:00,63.8,50.1,30.27,SSE,161,0.0,2.0,61,0.00,,---,0.00,81.00,VWS V14.00,2013-05-24 22:48:00,
2013-05-24 17:53:00,63.3,49.6,30.26,SSE,161,0.0,2.0,61,0.00,,---,0.00,70.00,VWS V14.00,2013-05-24 22:53:00,
2013-05-24 17:59:00,63.0,48.9,30.26,SSE,161,0.0,0.0,60,0.00,,---,0.00,79.00,VWS V14.00,2013-05-24 22:59:00,
2013-05-24 18:00:00,66.5,45.7,30.23,WSW,243,0.0,5.0,47,0.00,,---,0.00,190.00,VWS V14.00,2013-05-24 23:00:00,
2013-05-24 18:04:00,62.7,48.6,30.26,SSE,161,0.0,0.0,60,0.00,,---,0.00,81.00,VWS V14.00,2013-05-24 23:04:00,
2013-05-24 18:09:00,62.6,49.0,30.25,SSE,161,0.0,0.0,61,0.00,,---,0.00,70.00,VWS V14.00,2013-05-24 23:09:00,
2013-05-24 18:14:00,62.5,49.8,30.25,SSE,161,0.0,0.0,63,0.00,,---,0.00,60.00,VWS V14.00,2013-05-24 23:14:00,
2013-05-24 18:19:00,62.4,49.2,30.25,SSE,161,0.0,0.0,62,0.00,,---,0.00,58.00,VWS V14.00,2013-05-24 23:19:00,
2013-05-24 18:24:00,62.2,49.5,30.24,SSE,161,0.0,0.0,63,0.00,,---,0.00,49.00,VWS V14.00,2013-05-24 23:24:00,
2013-05-24 18:29:00,62.1,48.9,30.24,SSE,161,0.0,0.0,62,0.00,,---,0.00,40.00,VWS V14.00,2013-05-24 23:29:00,
2013-05-24 18:30:00,65.4,47.3,30.27,SSE,161,2.0,3.0,52,0.00,,---,0.00,97.00,VWS V14.00,2013-05-24 23:30:00,
2013-05-24 18:34:00,62.0,49.7,30.23,SSE,162,0.0,1.0,64,0.00,,---,0.00,26.00,VWS V14.00,2013-05-24 23:34:00,
2013-05-24 18:39:00,61.8,48.7,30.22,SSE,162,0.0,1.0,62,0.00,,---,0.00,16.00,VWS V14.00,2013-05-24 23:39:00,
2013-05-24 18:44:00,61.6,48.9,30.21,SSE,162,0.0,1.0,63,0.00,,---,0.00,12.00,VWS V14.00,2013-05-24 23:44:00,
2013-05-24 18:49:00,61.5,48.8,30.20,SSE,162,0.0,1.0,63,0.00,,---,0.00,12.00,VWS V14.00,2013-05-24 23:49:00,
2013-05-24 18:54:00,61.3,49.5,30.19,SSE,162,0.0,1.0,65,0.00,,---,0.00,12.00,VWS V14.00,2013-05-24 23:54:00,
2013-05-24 19:00:00,61.1,49.3,30.17,NW,319,0.0,3.0,65,0.00,,---,0.00,11.00,VWS V14.00,2013-05-25 00:00:00,
2013-05-24 19:05:00,61.1,49.7,30.17,North,360,0.0,3.0,66,0.00,,---,0.00,11.00,VWS V14.00,2013-05-25 00:05:00,
2013-05-24 19:10:00,60.9,50.3,30.13,West,278,1.0,3.0,68,0.00,,---,0.00,14.00,VWS V14.00,2013-05-25 00:10:00,
2013-05-24 19:15:00,60.5,49.9,30.17,WNW,283,0.0,3.0,68,0.00,,---,0.00,14.00,VWS V14.00,2013-05-25 00:15:00,
2013-05-24 19:20:00,60.1,51.1,30.18,WNW,282,0.0,3.0,72,0.00,,---,0.01,21.00,VWS V14.00,2013-05-25 00:20:00,
2013-05-24 19:25:00,59.7,52.1,30.17,WNW,282,0.0,3.0,76,0.00,,---,0.01,14.00,VWS V14.00,2013-05-25 00:25:00,
2013-05-24 19:30:00,59.1,50.5,30.18,SW,234,1.0,3.0,73,0.00,,---,0.01,9.00,VWS V14.00,2013-05-25 00:30:00,
2013-05-24 19:35:00,59.0,50.7,30.18,SW,234,0.0,3.0,74,0.00,,---,0.01,11.00,VWS V14.00,2013-05-25 00:35:00,
2013-05-24 19:40:00,58.9,51.7,30.20,SW,234,0.0,3.0,77,0.00,,---,0.01,7.00,VWS V14.00,2013-05-25 00:40:00,
2013-05-24 19:45:00,58.6,52.1,30.20,SW,234,0.0,3.0,79,0.00,,---,0.01,5.00,VWS V14.00,2013-05-25 00:45:00,
2013-05-24 19:50:00,58.4,52.3,30.21,SW,234,0.0,3.0,80,0.00,,---,0.01,5.00,VWS V14.00,2013-05-25 00:50:00,
2013-05-24 19:55:00,58.0,52.2,30.22,SW,234,0.0,3.0,81,0.00,,---,0.01,5.00,VWS V14.00,2013-05-25 00:55:00,
2013-05-24 20:00:00,61.2,48.5,30.18,SSE,162,0.0,1.0,63,0.00,,---,0.00,11.00,VWS V14.00,2013-05-25 01:00:00,
2013-05-24 20:01:00,57.7,51.9,30.22,SW,234,0.0,0.0,81,0.00,,---,0.01,5.00,VWS V14.00,2013-05-25 01:01:00,
2013-05-24 20:06:00,57.3,52.2,30.22,SW,234,0.0,0.0,83,0.00,,---,0.01,5.00,VWS V14.00,2013-05-25 01:06:00,
2013-05-24 20:11:00,57.1,52.0,30.22,SW,234,0.0,0.0,83,0.00,,---,0.01,0.00,VWS V14.00,2013-05-25 01:11:00,
2013-05-24 20:16:00,56.8,52.0,30.22,SW,234,0.0,0.0,84,0.00,,---,0.01,0.00,VWS V14.00,2013-05-25 01:16:00,
2013-05-24 20:21:00,56.6,51.8,30.22,SW,234,0.0,0.0,84,0.00,,---,0.01,0.00,VWS V14.00,2013-05-25 01:21:00,
2013-05-24 20:26:00,56.4,51.3,30.20,SW,234,0.0,0.0,83,0.00,,---,0.01,0.00,VWS V14.00,2013-05-25 01:26:00,
2013-05-24 20:30:00,59.5,51.9,30.17,WNW,282,0.0,3.0,76,0.00,,---,0.01,11.00,VWS V14.00,2013-05-25 01:30:00,
2013-05-24 20:31:00,56.2,51.4,30.21,SW,234,0.0,0.0,84,0.00,,---,0.01,0.00,VWS V14.00,2013-05-25 01:31:00,
2013-05-24 20:36:00,56.1,51.0,30.21,SW,234,0.0,0.0,83,0.00,,---,0.01,0.00,VWS V14.00,2013-05-25 01:36:00,
2013-05-24 20:41:00,56.0,51.6,30.20,SW,234,0.0,0.0,85,0.00,,---,0.01,0.00,VWS V14.00,2013-05-25 01:41:00,
2013-05-24 20:46:00,56.0,51.6,30.22,SW,234,0.0,0.0,85,0.00,,---,0.01,0.00,VWS V14.00,2013-05-25 01:46:00,
2013-05-24 20:52:00,55.8,51.7,30.21,SSW,209,0.0,2.0,86,0.00,,---,0.01,0.00,VWS V14.00,2013-05-25 01:52:00,
2013-05-24 20:57:00,55.7,51.9,30.21,SSW,209,0.0,2.0,87,0.00,,---,0.01,0.00,VWS V14.00,2013-05-25 01:57:00,
2013-05-24 21:00:00,55.8,52.0,30.21,SSW,209,0.0,2.0,87,0.00,,---,0.01,0.00,VWS V14.00,2013-05-25 02:00:00,
2013-05-24 21:02:00,55.7,52.2,30.22,SSW,209,0.0,0.0,88,0.00,,---,0.02,0.00,VWS V14.00,2013-05-25 02:02:00,
2013-05-24 21:07:00,55.5,51.7,30.22,SSW,209,0.0,0.0,87,0.00,,---,0.02,0.00,VWS V14.00,2013-05-25 02:07:00,
2013-05-24 21:12:00,55.4,51.9,30.22,SSW,209,0.0,0.0,88,0.00,,---,0.02,0.00,VWS V14.00,2013-05-25 02:12:00,
2013-05-24 21:17:00,55.2,51.7,30.22,SSW,209,0.0,0.0,88,0.00,,---,0.02,0.00,VWS V14.00,2013-05-25 02:17:00,
2013-05-24 21:22:00,55.0,51.8,30.21,SSW,209,0.0,0.0,89,0.00,,---,0.02,0.00,VWS V14.00,2013-05-25 02:22:00,
2013-05-24 21:27:00,54.9,52.0,30.21,SSW,209,0.0,0.0,90,0.00,,---,0.03,0.00,VWS V14.00,2013-05-25 02:27:00,
2013-05-24 21:30:00,56.3,51.5,30.20,SW,234,0.0,0.0,84,0.00,,---,0.01,0.00,VWS V14.00,2013-05-25 02:30:00,
2013-05-24 21:32:00,54.8,51.9,30.21,SSW,209,0.0,0.0,90,0.16,,---,0.04,0.00,VWS V14.00,2013-05-25 02:32:00,
2013-05-24 21:37:00,54.7,52.1,30.20,SSW,209,0.0,0.0,91,0.21,,---,0.07,0.00,VWS V14.00,2013-05-25 02:37:00,
2013-05-24 21:42:00,54.5,51.9,30.21,SSW,209,0.0,0.0,91,0.19,,---,0.08,0.00,VWS V14.00,2013-05-25 02:42:00,
2013-05-24 21:47:00,54.3,51.7,30.21,SSW,209,0.0,1.0,91,0.14,,---,0.09,0.00,VWS V14.00,2013-05-25 02:47:00,
2013-05-24 21:53:00,54.2,51.9,30.22,SSE,157,1.0,2.0,92,0.13,,---,0.10,0.00,VWS V14.00,2013-05-25 02:53:00,
2013-05-24 21:58:00,54.0,51.7,30.21,SSE,157,0.0,0.0,92,0.13,,---,0.11,0.00,VWS V14.00,2013-05-25 02:58:00,
2013-05-24 22:00:00,55.8,52.0,30.21,SSW,209,0.0,2.0,87,0.00,,---,0.01,0.00,VWS V14.00,2013-05-25 03:00:00,
2013-05-24 22:03:00,53.9,51.6,30.21,SSE,157,0.0,1.0,92,0.11,,---,0.12,0.00,VWS V14.00,2013-05-25 03:03:00,
2013-05-24 22:08:00,53.9,51.6,30.22,SSE,148,0.0,1.0,92,0.07,,---,0.13,0.00,VWS V14.00,2013-05-25 03:08:00,
2013-05-24 22:13:00,53.7,51.7,30.23,SSE,149,0.0,1.0,93,0.07,,---,0.13,0.00,VWS V14.00,2013-05-25 03:13:00,
2013-05-24 22:18:00,53.7,51.7,30.21,SSE,149,0.0,1.0,93,0.06,,---,0.13,0.00,VWS V14.00,2013-05-25 03:18:00,
2013-05-24 22:23:00,53.6,51.6,30.21,SSE,149,0.0,2.0,93,0.05,,---,0.14,0.00,VWS V14.00,2013-05-25 03:23:00,
2013-05-24 22:28:00,53.5,51.5,30.21,South,177,1.0,3.0,93,0.05,,---,0.14,0.00,VWS V14.00,2013-05-25 03:28:00,
2013-05-24 22:30:00,54.9,52.0,30.21,SSW,209,0.0,0.0,90,0.00,,---,0.03,0.00,VWS V14.00,2013-05-25 03:30:00,
2013-05-24 22:33:00,53.5,51.5,30.21,South,178,0.0,3.0,93,0.26,,---,0.16,0.00,VWS V14.00,2013-05-25 03:33:00,
2013-05-24 22:38:00,53.5,51.8,30.21,South,178,0.0,3.0,94,0.12,,---,0.17,0.00,VWS V14.00,2013-05-25 03:38:00,
2013-05-24 22:43:00,53.4,51.7,30.22,South,178,0.0,3.0,94,0.53,,---,0.20,0.00,VWS V14.00,2013-05-25 03:43:00,
2013-05-24 22:49:00,53.4,51.7,30.23,South,178,0.0,3.0,94,0.10,,---,0.21,0.00,VWS V14.00,2013-05-25 03:49:00,
2013-05-24 22:54:00,53.3,51.6,30.24,South,177,0.0,3.0,94,0.10,,---,0.21,0.00,VWS V14.00,2013-05-25 03:54:00,
2013-05-24 22:59:00,53.2,51.5,30.24,South,181,0.0,1.0,94,0.06,,---,0.21,0.00,VWS V14.00,2013-05-25 03:59:00,
2013-05-24 23:00:00,54.0,51.7,30.21,SSE,157,0.0,2.0,92,0.13,,---,0.11,0.00,VWS V14.00,2013-05-25 04:00:00,
2013-05-24 23:01:00,53.2,51.5,30.24,South,181,0.0,1.0,94,0.05,,---,0.21,0.00,VWS V14.00,2013-05-25 04:01:00,
2013-05-24 23:02:00,53.2,51.5,30.24,South,181,0.0,1.0,94,0.05,,---,0.21,0.00,VWS V14.00,2013-05-25 04:02:00,
2013-05-24 23:07:00,53.1,51.4,30.24,South,184,0.0,1.0,94,0.00,,---,0.21,0.00,VWS V14.00,2013-05-25 04:07:00,
2013-05-24 23:12:00,53.0,51.3,30.24,South,184,0.0,1.0,94,0.00,,---,0.21,0.00,VWS V14.00,2013-05-25 04:12:00,
2013-05-24 23:17:00,52.9,51.2,30.24,South,184,0.0,1.0,94,0.00,,---,0.22,0.00,VWS V14.00,2013-05-25 04:17:00,
2013-05-24 23:22:00,52.8,51.1,30.24,South,184,0.0,1.0,94,0.17,,---,0.23,0.00,VWS V14.00,2013-05-25 04:22:00,
2013-05-24 23:27:00,52.8,51.1,30.24,South,184,0.0,1.0,94,0.11,,---,0.24,0.00,VWS V14.00,2013-05-25 04:27:00,
2013-05-24 23:30:00,53.5,51.5,30.22,SSE,149,0.0,2.0,93,0.05,,---,0.14,0.00,VWS V14.00,2013-05-25 04:30:00,
2013-05-24 23:32:00,52.7,51.0,30.23,South,185,0.0,1.0,94,0.09,,---,0.24,0.00,VWS V14.00,2013-05-25 04:32:00,
2013-05-24 23:37:00,52.6,50.9,30.23,South,184,0.0,1.0,94,0.05,,---,0.24,0.00,VWS V14.00,2013-05-25 04:37:00,
2013-05-24 23:42:00,52.5,50.8,30.23,SSW,206,0.0,2.0,94,0.04,,---,0.24,0.00,VWS V14.00,2013-05-25 04:42:00,
2013-05-24 23:47:00,52.4,51.0,30.24,SSW,206,0.0,2.0,95,0.00,,---,0.24,0.00,VWS V14.00,2013-05-25 04:47:00,
2013-05-24 23:53:00,52.4,51.0,30.24,SSW,206,0.0,2.0,95,0.00,,---,0.24,0.00,VWS V14.00,2013-05-25 04:53:00,
2013-05-24 23:58:00,52.4,51.0,30.25,SSW,206,0.0,0.0,95,0.00,,---,0.00,0.00,VWS V14.00,2013-05-25 04:58:00,